Meteo Giornale » Osservazioni meteo Stati Uniti (USA) » Watonga
ore: 08:55 - Osservazioni Meteo Watonga
Lat. 35° 51' N Lon. 98° 25' W Alt. 472 metri s.l.m.
29 °C
Sereno
Temp. 24 Ore
26 °C
39 °C
Sud
24 Km/h
Dew point 16 °C
Umidità 45 %
Visibilità 10 Km
Il sole sorge alle ore 07:05
Il sole tramonta alle ore 20:02
| Data e Ora | Cielo e Fenomeni | T °C | DP °C | Um. % | Pres. hPa | Vis. km | Vento km/h | |
|---|---|---|---|---|---|---|---|---|
| Oggi h: 08:55 | Sereno | 29 | 16 | 45 | 1017 | 10 | S 24 | |
| Oggi h: 08:35 | Sereno | 27 | 15 | 47 | 1017 | 10 | S 13 | |
| Oggi h: 08:15 | Sereno | 27 | 15 | 47 | 1017 | 10 | S 9.3 | |
| Oggi h: 07:55 | Sereno | 26 | 15 | 50 | 1017 | 10 | S 9.3 | |
| Oggi h: 07:35 | Sereno | 26 | 14 | 47 | 1017 | 10 | S 14.8 | |
| Oggi h: 07:15 | Sereno | 26 | 14 | 47 | 1017 | 10 | S 13 | |
| Oggi h: 06:55 | Sereno | 26 | 14 | 47 | 1016 | 10 | S 13 | |
| Oggi h: 06:35 | Sereno | 26 | 14 | 47 | 1016 | 10 | S 13 | |
| Oggi h: 06:15 | Sereno | 27 | 14 | 44 | 1016 | 10 | S 16.7 | |
| Oggi h: 05:55 | Sereno | 27 | 14 | 44 | 1016 | 10 | S 18.5 | |
| Oggi h: 05:35 | Sereno | 27 | 14 | 44 | 1016 | 10 | S 16.7 | |
| Oggi h: 05:15 | Sereno | 26 | 14 | 47 | 1015 | 10 | S 16.7 | |
| Oggi h: 04:55 | Sereno | 27 | 13 | 42 | 1015 | 10 | S 16.7 | |
| Oggi h: 04:35 | Sereno | 27 | 13 | 42 | 1015 | 10 | S 16.7 | |
| Oggi h: 04:15 | Sereno | 27 | 13 | 42 | 1015 | 10 | S 18.5 | |
| Oggi h: 03:55 | Sereno | 27 | 13 | 42 | 1015 | 10 | S 16.7 | |
| Oggi h: 03:35 | Sereno | 27 | 13 | 42 | 1015 | 10 | S 18.5 | |
| Oggi h: 03:15 | Sereno | 28 | 13 | 39 | 1015 | 10 | S 18.5 | |
| Oggi h: 02:55 | Sereno | 28 | 13 | 39 | 1015 | 10 | S 20.3 | |
| Oggi h: 02:35 | Sereno | 28 | 13 | 39 | 1015 | 10 | S 22.2 | |
| Oggi h: 02:15 | Sereno | 29 | 13 | 37 | 1015 | 10 | S 18.5 | |
| Oggi h: 01:55 | Sereno | 29 | 13 | 37 | 1015 | 10 | S 18.5 | |
| Oggi h: 01:35 | Sereno | 29 | 13 | 37 | 1015 | 10 | S 18.5 | |
| Oggi h: 01:15 | Sereno | 30 | 13 | 35 | 1015 | 10 | S 24 | |
| Oggi h: 00:55 | Sereno | 30 | 13 | 35 | 1015 | 10 | S 24 | |
| Oggi h: 00:35 | Sereno | 30 | 13 | 35 | 1014 | 10 | S 22.2 | |
| Oggi h: 00:15 | Sereno | 30 | 13 | 35 | 1014 | 10 | S 20.3 | |
| Ieri h: 23:55 | Sereno | 30 | 13 | 35 | 1014 | 10 | S 20.3 | |
| Ieri h: 23:35 | Sereno | 30 | 13 | 35 | 1014 | 10 | S/SE 16.7 | |
| Ieri h: 23:15 | Sereno | 29 | 13 | 37 | 1014 | 10 | S/SE 14.8 | |
| Ieri h: 22:55 | Sereno | 30 | 13 | 35 | 1014 | 10 | S/SE 14.8 | |
| Ieri h: 22:35 | Sereno | 31 | 13 | 33 | 1014 | 10 | S/SE 14.8 | |
| Ieri h: 22:15 | Sereno | 31 | 13 | 33 | 1014 | 10 | S/SE 13 | |
| Ieri h: 21:55 | Sereno | 31 | 13 | 33 | 1014 | 10 | S/SE 13 | |
| Ieri h: 21:35 | Sereno | 32 | 13 | 31 | 1014 | 10 | S/SE 11.1 | |
| Ieri h: 21:15 | Sereno | 33 | 13 | 29 | 1013 | 10 | S/SE 13 | |
| Ieri h: 20:55 | Sereno | 33 | 13 | 29 | 1013 | 10 | S/SE 11.1 | |
| Ieri h: 20:35 | Sereno | 34 | 13 | 28 | 1013 | 10 | S/SE 13 | |
| Ieri h: 20:15 | Sereno | 35 | 13 | 26 | 1012 | 10 | S 16.7 | |
| Ieri h: 19:55 | Sereno | 35 | 13 | 26 | 1012 | 10 | S 20.3 | |
| Ieri h: 19:35 | Sereno | 36 | 13 | 25 | 1012 | 10 | S 22.2 | |
| Ieri h: 19:15 | Sereno | 37 | 14 | 25 | 1012 | 10 | S 18.5 | |
| Ieri h: 18:55 | Sereno | 37 | 14 | 25 | 1012 | 10 | S 20.3 | |
| Ieri h: 18:35 | Sereno | 38 | 14 | 24 | 1012 | 10 | S 18.5 | |
| Ieri h: 18:15 | Sereno | 38 | 14 | 24 | 1012 | 10 | S 24 | |
| Ieri h: 17:55 | Sereno | 39 | 14 | 22 | 1012 | 10 | S 20.3 | |
| Ieri h: 17:35 | Sereno | 39 | 14 | 22 | 1012 | 10 | S 25.9 | |
| Ieri h: 17:15 | Sereno | 39 | 14 | 22 | 1012 | 10 | S 20.3 | |
| Ieri h: 16:55 | Sereno | 39 | 14 | 22 | 1012 | 10 | S 24 | |
| Ieri h: 16:35 | Sereno | 39 | 14 | 22 | 1012 | 10 | S 27.8 | |
| Ieri h: 16:15 | Sereno | 39 | 14 | 22 | 1012 | 10 | S/SO 25.9 | |
| Ieri h: 15:55 | Sereno | 39 | 14 | 22 | 1013 | 10 | S 20.3 | |
| Ieri h: 15:35 | Sereno | 39 | 14 | 22 | 1013 | 10 | S 25.9 | |
| Ieri h: 15:15 | Nuvoloso | 39 | 15 | 24 | 1013 | 10 | S 31.5 | |
| Ieri h: 14:55 | Sereno | 39 | 15 | 24 | 1014 | 10 | S 33.3 | |
| Ieri h: 14:35 | Sereno | 39 | 15 | 24 | 1014 | 10 | S 25.9 | |
| Ieri h: 14:15 | Sereno | 38 | 16 | 27 | 1014 | 10 | S 31.5 | |
| Ieri h: 13:55 | Sereno | 38 | 16 | 27 | 1014 | 10 | S/SO 31.5 | |
| Ieri h: 13:35 | Sereno | 38 | 16 | 27 | 1014 | 10 | S 27.8 | |
| Ieri h: 13:15 | Sereno | 37 | 16 | 28 | 1015 | 10 | S/SO 33.3 | |
| Ieri h: 12:55 | Sereno | 38 | 16 | 27 | 1015 | 10 | S 35.2 | |
| Ieri h: 12:35 | Sereno | 37 | 16 | 28 | 1015 | 10 | S/SO 42.6 | |
| Ieri h: 12:15 | Sereno | 37 | 16 | 28 | 1015 | 10 | S 37 | |
| Ieri h: 11:55 | Sereno | 37 | 16 | 28 | 1016 | 10 | S/SO 31.5 | |
| Ieri h: 11:35 | Sereno | 36 | 16 | 30 | 1016 | 10 | S/SO 31.5 | |
| Ieri h: 11:15 | Sereno | 35 | 16 | 32 | 1016 | 10 | S 31.5 | |
| Ieri h: 10:55 | Sereno | 34 | 16 | 34 | 1016 | 10 | S/SO 25.9 | |
| Ieri h: 10:40 | Sereno | 34 | 16 | 34 | 1016 | 10 | S/SO 31.5 | |
| Ieri h: 10:15 | Sereno | 33 | 16 | 36 | 1016 | 10 | S/SO 31.5 | |
| Ieri h: 09:55 | Sereno | 32 | 16 | 38 | 1016 | 10 | S 31.5 | |
| Ieri h: 09:35 | Sereno | 31 | 16 | 40 | 1016 | 10 | S/SO 31.5 | |



